Temp
68 67 65 64 65 66 66 65 64 66 67 66 66 66 64 63 60 59 60 61 62 67 71 67 71 74 71 70 70 70 70 69 67 68 68 71 71 66 64 64 66 69 71 71 73 74 74 73 72 72 71 72 72 72 72 72 72 71 71 70 70 69 68 67 68 68 68 69 69 69 68 68 68 67
66 67 67 66 66 66 66 65 65 66 67 65 66 66 66 65 62 62 60 61 64 65 68 70 68 70 69 70 71 71 70 67 67 69 69 70 72 65 62 62 64 66 67 66 67 70 73 74 74 73 72 72 72 72 72 72 72 71 71 70 69 66 65 67 68 69 69 69 69 69 69 68 68 67
65 65 65 67 66 66 65 66 66 66 65 65 65 66 67 66 65 63 62 59 64 66 64 67 70 69 71 72 71 72 71 68 66 68 68 69 66 64 64 61 62 63 62 62 62 64 68 71 72 73 72 72 72 72 72 72 72 70 69 67 66 64 64 66 68 69 69 69 69 69 69 68 68 67
65 65 66 66 66 66 66 66 66 66 66 66 65 65 65 65 66 65 63 61 62 64 65 67 69 69 70 72 70 70 71 69 65 69 68 68 63 66 68 62 61 61 60 60 61 60 64 68 70 71 71 71 71 71 71 71 69 66 65 64 64 63 63 65 68 68 69 69 69 69 69 68 68 68
65 65 66 67 67 67 66 65 65 65 65 63 64 65 65 64 65 65 63 62 62 65 67 67 68 72 72 71 71 69 69 69 67 66 69 69 68 68 67 67 61 59 59 59 58 58 59 61 64 68 70 70 69 69 68 64 63 65 65 65 64 62 61 62 66 68 68 69 69 69 69 69 68 68
66 65 63 64 66 66 65 66 65 65 63 63 63 65 65 65 65 66 64 63 63 63 65 65 68 69 72 69 72 69 68 68 69 67 69 70 69 67 67 67 67 60 58 58 58 57 57 58 58 60 66 67 61 59 60 60 60 62 62 62 62 60 59 59 62 66 68 68 68 69 68 68 67 67
66 65 64 64 66 65 64 64 65 63 62 64 64 64 65 64 64 66 66 64 62 63 64 66 66 66 67 68 68 69 70 68 69 69 69 69 71 70 69 68 69 61 59 57 57 57 57 57 56 57 58 60 59 58 58 58 57 57 58 58 58 57 57 57 58 61 65 66 67 67 66 66 65 65
66 65 65 65 65 64 64 65 64 63 64 64 64 64 64 63 65 65 64 65 63 63 62 64 65 65 65 66 68 69 69 68 68 68 68 68 68 68 70 69 69 64 57 57 56 56 55 55 56 56 56 56 57 56 56 56 56 55 55 55 55 55 55 55 55 56 60 62 62 62 63 63 64 64
65 65 65 65 66 65 63 63 63 64 64 64 64 64 64 63 64 63 63 64 64 63 62 63 64 65 66 67 67 68 69 67 68 68 68 68 67 67 68 69 64 56 55 57 56 56 57 56 55 54 54 54 55 55 55 55 54 54 53 53 53 53 53 53 53 53 53 54 54 55 55 55 57 60
67 63 64 64 65 65 63 62 63 64 64 64 62 62 62 63 63 62 62 62 62 62 62 62 62 64 64 65 65 69 69 67 66 66 67 67 67 66 66 67 67 64 62 61 59 56 55 55 55 55 54 53 53 53 54 54 54 54 53 53 52 52 52 52 52 52 52 51 52 53 52 52 53 56
67 66 65 64 64 64 65 64 64 64 63 62 62 62 63 64 63 62 63 63 63 62 62 63 63 62 64 64 62 66 67 67 68 66 65 64 65 65 66 66 68 67 65 61 59 60 60 58 57 53 52 53 53 54 54 54 55 55 54 53 52 52 51 51 51 51 51 50 49 49 49 49 50 51
67 67 66 65 66 66 65 65 64 64 64 63 62 63 62 63 62 62 62 62 62 62 61 61 60 62 61 62 63 65 65 64 66 67 65 63 63 64 65 65 64 66 65 65 64 59 59 59 57 53 53 54 54 54 53 54 55 55 54 52 51 51 50 51 51 51 50 50 49 49 48 48 47 47
67 67 66 65 64 66 67 64 62 62 63 64 62 63 63 62 62 62 62 61 60 60 61 60 60 60 61 61 61 60 61 61 62 64 64 63 65 64 64 65 66 66 65 64 65 66 65 62 62 61 60 57 54 54 54 55 54 54 53 51 51 50 51 51 50 50 49 49 49 48 48 48 47 47
67 67 67 65 68 67 67 62 56 53 55 59 63 63 63 64 63 63 62 61 61 60 59 59 60 59 59 60 61 61 62 63 62 62 62 62 63 64 62 63 63 64 65 64 64 66 67 66 65 66 63 61 60 60 56 58 57 52 51 50 50 50 49 49 49 49 48 48 48 48 47 47 47 47
66 66 66 65 65 65 64 60 53 52 52 51 52 53 55 58 61 62 61 62 62 60 59 60 60 59 59 60 61 62 62 61 62 61 61 62 63 61 60 58 61 65 63 63 63 63 65 66 63 60 57 58 57 56 52 49 50 50 49 49 49 49 49 48 48 48 47 47 47 47 47 46 46 46
66 66 65 65 66 64 65 64 59 57 52 50 49 49 50 49 48 50 57 60 61 60 60 60 60 60 60 60 61 61 62 61 62 62 61 61 61 61 60 60 59 61 62 62 62 61 64 63 60 57 56 54 52 51 49 48 48 48 48 48 48 48 48 47 47 47 47 47 46 45 45 45 45 45
65 65 65 64 64 66 66 66 65 61 58 53 52 52 53 54 52 45 44 48 58 61 61 61 58 58 60 59 59 60 61 61 60 61 61 60 60 60 60 59 58 58 59 62 60 59 62 62 58 56 56 55 54 52 49 48 48 47 47 46 46 46 46 46 46 46 45 45 45 45 45 45 44 44
64 64 64 64 64 64 61 58 59 64 62 60 60 60 60 57 56 52 49 50 52 58 62 60 57 57 58 57 57 59 59 61 60 60 60 60 60 59 57 57 56 56 57 60 60 59 60 59 56 53 54 54 52 50 48 48 47 47 47 46 46 46 46 46 46 46 46 47 47 47 46 46 45 45
63 63 62 63 63 63 58 53 53 57 61 62 61 59 56 55 53 51 51 52 58 60 59 58 56 55 55 55 54 56 59 61 61 61 61 62 61 59 60 59 57 56 55 56 60 57 58 58 55 53 53 53 51 51 48 48 48 48 48 47 47 47 47 47 47 47 48 48 48 47 47 47 46 45
63 61 60 61 61 62 56 49 43 47 54 62 60 57 56 54 53 51 48 44 48 54 55 55 53 51 49 47 49 50 54 59 61 63 63 62 61 60 57 55 55 53 55 53 58 58 58 58 55 54 54 53 51 52 51 49 48 48 48 48 48 48 48 48 48 48 48 48 48 47 47 47 46 47
59 59 59 59 59 59 57 47 40 41 49 62 59 57 56 55 54 53 52 46 43 43 43 43 43 43 44 45 45 45 46 51 59 61 59 58 60 58 56 55 53 52 52 52 50 56 57 57 55 54 55 54 51 52 52 52 49 48 48 48 48 48 48 48 49 48 48 48 48 48 47 47 47 51
58 56 56 56 54 54 53 43 40 40 53 61 59 57 56 54 53 54 55 55 51 43 43 43 44 45 46 47 48 47 47 48 55 59 56 57 59 57 56 54 53 53 52 51 50 55 56 58 57 55 55 54 55 54 53 52 51 49 49 48 48 49 49 49 49 48 48 48 48 48 47 46 48 58
60 57 54 51 47 48 45 40 40 41 54 62 60 58 57 55 54 55 57 56 56 56 56 56 56 54 54 56 55 54 49 51 55 56 56 58 58 57 56 55 54 53 52 52 51 54 53 56 56 56 55 52 54 55 54 54 55 55 57 57 57 51 53 52 51 48 49 49 48 48 48 45 48 55
60 60 58 53 43 40 40 40 40 43 46 61 61 60 58 56 55 58 58 58 56 56 55 54 55 54 54 55 56 56 56 56 56 54 55 56 58 55 54 52 52 51 49 51 51 54 53 53 53 55 55 52 50 53 53 51 53 55 56 56 55 54 54 54 54 51 47 48 48 48 48 48 48 53
59 58 57 55 46 40 40 40 42 44 47 55 61 61 59 58 57 56 58 58 59 57 56 55 55 54 53 53 54 54 55 55 55 54 54 55 55 56 53 50 49 48 49 51 48 54 51 52 52 53 53 54 53 50 51 51 52 54 55 55 55 56 56 56 55 57 55 52 51 47 45 45 46 52
58 56 54 52 46 39 40 41 43 44 46 49 59 56 48 47 47 59 59 58 57 57 56 55 55 55 54 53 53 54 54 54 55 54 54 53 54 55 55 54 51 48 49 54 49 56 53 51 51 52 52 52 52 51 49 49 50 53 54 55 55 56 56 56 54 54 55 57 58 53 53 52 48 49
56 56 54 53 47 40 41 41 42 45 47 53 53 45 45 46 47 55 60 59 58 55 55 54 53 52 53 52 52 52 53 53 53 54 54 55 55 55 56 56 56 54 54 56 57 57 54 51 53 53 51 52 52 52 52 49 51 54 55 55 55 56 56 55 54 55 55 55 56 53 52 52 49 48
56 54 52 49 41 42 42 42 42 43 47 48 43 45 46 46 48 58 59 57 57 55 54 53 52 52 52 53 52 52 53 53 53 54 55 55 56 55 55 56 56 57 57 58 58 57 56 54 54 54 54 54 52 51 49 52 51 52 52 54 55 56 56 54 54 54 55 54 54 55 53 53 54 50
52 46 43 43 43 42 43 43 47 47 45 44 45 47 45 55 57 58 59 58 58 55 53 53 52 52 53 53 53 53 53 53 53 53 54 55 55 55 56 55 55 56 57 58 58 58 57 55 55 56 54 53 53 53 52 51 51 51 52 50 51 53 52 55 55 52 53 52 52 52 53 53 54 55
41 42 43 42 42 44 46 52 56 56 56 48 46 45 45 57 59 60 59 58 56 54 54 53 53 53 53 53 54 55 55 53 52 52 53 52 52 54 54 54 54 55 56 57 58 57 57 56 55 55 54 54 52 52 51 51 49 50 49 50 50 52 52 52 51 51 52 51 52 52 54 54 54 54
52 48 47 50 46 47 43 47 50 52 51 53 58 58 58 58 58 56 56 56 55 54 54 54 54 54 54 56 54 54 54 54 54 55 53 53 53 54 54 53 52 52 54 55 57 56 56 55 56 55 52 52 52 51 52 53 50 50 50 51 51 49 52 52 53 50 51 51 52 52 53 54 54 54
56 54 50 49 52 54 55 56 56 56 58 58 56 58 57 58 57 58 60 59 56 56 56 55 55 53 55 53 54 54 53 53 54 55 54 55 53 53 55 52 50 51 52 52 54 55 55 54 54 54 53 51 49 50 50 52 50 48 49 50 51 51 52 50 49 49 50 50 48 49 51 51 52 54
56 54 53 52 53 54 54 55 57 58 58 57 57 57 58 58 58 58 56 56 55 55 53 54 53 52 53 53 53 52 52 53 53 54 53 54 53 54 53 50 49 48 48 49 51 53 53 53 53 53 52 52 51 50 49 48 49 49 47 48 48 47 48 48 48 48 49 48 50 50 49 51 54 54
55 54 53 54 54 55 56 56 55 55 56 56 57 57 53 56 57 57 56 56 55 56 53 54 52 53 51 52 52 51 51 51 53 52 50 52 53 51 49 48 48 50 49 48 49 51 52 52 53 53 53 52 52 50 50 49 46 48 47 47 46 46 47 50 48 48 49 48 48 47 47 48 51 51
54 55 55 55 56 56 57 55 56 56 56 56 56 56 56 57 55 53 55 55 54 53 53 53 53 52 53 52 51 50 51 52 52 52 51 51 53 50 49 48 48 48 48 47 47 48 49 50 50 51 48 49 49 50 48 48 47 47 48 45 46 45 47 48 47 49 47 46 47 45 47 47 48 51
48 53 56 56 56 56 56 56 56 57 57 57 57 55 55 54 54 55 54 55 55 54 55 53 51 53 53 51 51 51 51 49 51 51 50 50 50 49 49 49 48 48 48 48 47 48 48 48 47 45 45 46 45 41 45 47 45 47 44 44 45 46 46 46 45 47 47 46 46 45 43 44 45 48
53 55 58 58 58 58 57 57 57 57 56 56 56 55 54 53 54 54 56 55 54 53 53 53 52 51 51 51 50 49 49 51 51 50 50 50 50 50 48 48 49 48 48 48 48 49 49 46 47 45 42 42 40 36 41 49 48 48 48 45 44 47 46 45 46 44 45 45 44 44 44 45 45 46
53 57 58 57 58 57 56 56 55 56 56 56 55 55 54 54 55 55 55 55 53 53 53 53 53 53 53 52 51 51 53 52 51 50 47 50 51 51 49 48 48 48 48 48 49 49 48 47 45 44 42 39 35 36 37 40 42 47 49 47 45 45 45 43 43 40 42 44 45 44 44 42 43 45
54 56 58 57 58 58 57 58 57 56 57 56 56 55 55 54 55 55 55 54 55 55 54 53 53 51 54 53 52 48 50 50 49 48 49 50 49 48 49 48 50 50 49 47 48 48 47 46 43 43 42 41 41 41 43 39 37 40 46 48 49 45 43 46 41 42 41 40 42 45 46 46 49 46
58 60 60 59 58 59 59 59 58 58 57 57 56 57 56 55 55 54 54 53 54 55 55 54 54 54 52 53 50 52 52 51 49 49 48 48 48 48 48 48 49 48 49 47 47 46 46 44 45 45 44 46 46 47 43 40 39 40 43 46 46 49 46 46 42 41 37 41 43 41 38 41 40 41
60 60 60 60 58 58 58 57 57 56 56 56 57 55 56 56 56 55 55 55 51 53 51 53 53 52 53 52 52 51 46 45 49 49 48 47 44 43 43 42 46 47 45 45 45 45 44 46 46 43 43 45 47 46 38 37 37 36 36 41 49 46 45 48 47 44 40 41 41 38 36 36 37 38
59 59 59 59 58 58 58 57 58 57 57 56 56 58 56 56 53 49 52 49 55 53 53 53 53 49 52 52 50 44 45 43 44 46 46 46 44 44 43 43 44 45 44 41 44 44 47 47 47 48 47 45 39 36 37 37 37 35 37 37 39 46 44 42 42 44 46 43 39 35 35 33 37 34
59 59 58 58 58 58 58 57 58 57 57 57 56 57 56 54 55 55 53 55 55 52 51 51 50 49 49 47 47 45 44 43 46 47 46 47 46 43 41 43 46 46 46 46 46 46 46 46 45 45 44 40 38 38 36 36 36 35 36 36 36 37 41 46 48 47 46 45 44 44 43 38 36 31
59 59 59 59 59 59 59 59 58 57 58 58 55 57 55 53 53 55 54 53 50 49 52 47 46 47 48 47 45 45 46 45 46 48 43 42 43 44 45 43 43 45 45 42 41 41 43 45 44 44 39 38 39 37 35 35 35 36 36 36 36 36 36 36 39 43 43 43 43 42 42 43 44 45
59 60 60 60 59 60 60 59 58 58 57 57 56 56 53 54 51 55 55 53 51 51 48 48 46 46 45 44 44 43 43 46 45 43 43 43 44 42 42 44 39 42 41 43 38 38 39 40 40 42 40 38 39 38 37 37 36 36 35 35 35 35 35 37 36 35 35 37 42 43 41 41 41 41
MSLP
1015.11 1015.19 1015.35 1015.63 1015.71 1015.39 1015.35 1015.43 1015.67 1015.79 1015.79 1015.79 1015.83 1015.83 1016.11 1016.35 1017.03 1017.27 1017.23 1016.71 1016.55 1015.87 1015.51 1016.15 1015.43 1014.99 1015.19 1015.31 1015.35 1015.51 1015.63 1015.75 1016.15 1016.39 1017.07 1017.11 1016.67 1016.83 1017.03 1017.19 1017.39 1017.55 1017.67 1017.87 1017.99 1018.11 1018.31 1018.55 1018.79 1019.03 1019.27 1019.47 1019.67 1019.83 1019.99 1020.15 1020.31 1020.51 1020.71 1020.87 1020.99 1021.11 1021.23 1021.35 1021.43 1021.51 1021.63 1021.71 1021.75 1021.83 1021.95 1022.07 1022.19 1022.31
1015.23 1015.23 1015.15 1015.19 1015.43 1015.43 1015.35 1015.23 1015.23 1015.43 1015.51 1015.75 1015.75 1015.71 1015.63 1015.71 1016.31 1016.47 1016.91 1016.67 1015.91 1015.91 1015.39 1015.31 1015.59 1015.23 1015.39 1015.35 1015.27 1015.19 1015.23 1015.47 1015.91 1016.11 1016.39 1017.19 1016.95 1016.67 1016.99 1017.19 1017.31 1017.47 1017.63 1017.79 1017.87 1018.03 1018.15 1018.31 1018.51 1018.75 1018.99 1019.19 1019.39 1019.63 1019.79 1019.95 1020.11 1020.31 1020.47 1020.59 1020.79 1020.91 1021.03 1021.15 1021.23 1021.31 1021.43 1021.51 1021.59 1021.63 1021.71 1021.83 1021.95 1022.07
1015.11 1015.15 1015.19 1014.99 1015.03 1015.07 1015.23 1015.15 1015.03 1015.07 1015.39 1015.47 1015.59 1015.55 1015.47 1015.55 1015.79 1016.19 1016.43 1016.95 1015.95 1015.43 1015.91 1015.55 1015.11 1015.15 1015.11 1015.15 1015.23 1015.19 1015.15 1015.35 1015.71 1015.95 1016.11 1016.83 1017.55 1017.23 1016.91 1017.11 1017.23 1017.39 1017.51 1017.63 1017.79 1017.91 1018.03 1018.15 1018.31 1018.47 1018.71 1018.91 1019.11 1019.31 1019.55 1019.75 1019.91 1020.07 1020.23 1020.39 1020.55 1020.71 1020.87 1020.99 1021.07 1021.15 1021.19 1021.31 1021.39 1021.43 1021.51 1021.59 1021.71 1021.79
1015.15 1014.95 1014.95 1014.83 1014.83 1014.79 1014.87 1014.99 1014.87 1014.83 1014.91 1015.03 1015.31 1015.51 1015.47 1015.39 1015.35 1015.63 1016.11 1016.47 1016.23 1015.47 1015.47 1015.47 1015.23 1014.75 1014.71 1014.91 1015.39 1015.35 1015.31 1015.27 1015.47 1015.63 1015.67 1015.75 1016.35 1017.07 1017.23 1016.99 1016.99 1017.27 1017.35 1017.47 1017.63 1017.79 1017.91 1018.07 1018.19 1018.35 1018.51 1018.71 1018.87 1019.07 1019.31 1019.51 1019.67 1019.87 1020.03 1020.19 1020.35 1020.47 1020.63 1020.75 1020.83 1020.91 1020.95 1021.03 1021.15 1021.19 1021.27 1021.35 1021.43 1021.51
1015.07 1014.99 1014.79 1014.59 1014.63 1014.55 1014.71 1014.83 1014.87 1014.79 1014.87 1015.35 1015.35 1015.15 1015.19 1015.23 1015.15 1015.43 1015.99 1016.19 1016.11 1015.59 1015.03 1015.15 1015.19 1014.79 1014.79 1015.19 1015.07 1015.35 1015.27 1015.27 1015.35 1015.47 1015.71 1016.19 1016.27 1016.23 1016.91 1017.47 1017.55 1017.19 1017.07 1017.27 1017.39 1017.55 1017.75 1017.91 1018.07 1018.19 1018.31 1018.47 1018.67 1018.87 1019.07 1019.27 1019.47 1019.67 1019.83 1019.95 1020.11 1020.23 1020.39 1020.51 1020.59 1020.67 1020.71 1020.79 1020.87 1020.99 1021.03 1021.11 1021.15 1021.27
1014.83 1014.95 1015.19 1015.07 1014.71 1014.55 1014.71 1014.59 1014.63 1014.71 1014.91 1015.27 1015.23 1014.91 1014.79 1014.87 1014.95 1014.95 1015.47 1015.71 1015.87 1015.91 1015.31 1015.23 1014.95 1015.03 1014.79 1015.31 1014.75 1015.11 1015.27 1015.27 1015.23 1015.59 1015.87 1016.15 1016.19 1016.11 1016.03 1015.87 1016.07 1016.91 1017.35 1017.03 1016.99 1017.19 1017.43 1017.67 1017.91 1018.07 1018.19 1018.35 1018.55 1018.71 1018.91 1019.07 1019.27 1019.39 1019.55 1019.67 1019.83 1019.95 1020.11 1020.27 1020.35 1020.43 1020.51 1020.59 1020.67 1020.75 1020.83 1020.91 1020.95 1021.03
1014.79 1014.75 1014.91 1014.87 1014.51 1014.43 1014.51 1014.59 1014.59 1014.67 1014.67 1014.59 1014.75 1014.83 1014.79 1014.91 1014.99 1014.83 1014.91 1015.35 1015.75 1015.75 1015.51 1015.03 1015.19 1015.11 1015.03 1015.11 1015.23 1015.07 1014.95 1015.03 1015.11 1015.39 1015.71 1015.95 1015.83 1015.51 1015.31 1015.31 1015.07 1014.99 1015.47 1016.51 1016.87 1016.95 1017.19 1017.43 1017.67 1017.91 1018.11 1018.27 1018.47 1018.63 1018.79 1018.91 1019.07 1019.19 1019.31 1019.43 1019.55 1019.67 1019.83 1019.99 1020.11 1020.23 1020.31 1020.39 1020.47 1020.55 1020.63 1020.71 1020.75 1020.83
1014.87 1014.91 1014.63 1014.55 1014.43 1014.39 1014.51 1014.43 1014.43 1014.47 1014.39 1014.47 1014.55 1014.63 1014.63 1014.75 1014.83 1014.75 1014.99 1014.99 1015.23 1015.35 1015.67 1015.23 1015.11 1014.95 1014.99 1014.95 1014.95 1015.39 1015.19 1015.19 1015.43 1015.43 1015.43 1015.51 1015.59 1015.47 1015.27 1015.11 1015.35 1015.55 1015.87 1016.15 1016.67 1017.07 1017.35 1017.55 1017.63 1017.75 1017.91 1018.15 1018.35 1018.55 1018.71 1018.83 1018.99 1019.11 1019.19 1019.27 1019.39 1019.51 1019.63 1019.79 1019.91 1020.07 1020.15 1020.27 1020.35 1020.39 1020.47 1020.55 1020.63 1020.71
1014.67 1014.67 1014.55 1014.47 1014.43 1014.51 1014.71 1014.63 1014.47 1014.27 1014.35 1014.39 1014.51 1014.59 1014.55 1014.67 1014.59 1014.87 1015.11 1015.07 1015.03 1015.23 1015.43 1015.23 1014.91 1014.87 1015.03 1014.87 1014.75 1014.99 1015.47 1015.43 1015.47 1015.51 1015.47 1015.43 1015.51 1015.47 1015.23 1015.11 1015.31 1015.51 1015.75 1016.35 1016.83 1016.99 1016.95 1017.15 1017.51 1017.79 1017.99 1018.15 1018.31 1018.47 1018.63 1018.71 1018.79 1018.87 1018.95 1019.07 1019.19 1019.39 1019.55 1019.75 1019.91 1020.07 1020.15 1020.23 1020.31 1020.35 1020.47 1020.55 1020.67 1020.67
1014.63 1014.83 1014.71 1014.55 1014.39 1014.35 1014.47 1014.63 1014.47 1014.31 1014.35 1014.43 1014.59 1014.51 1014.55 1014.59 1014.71 1014.91 1014.99 1015.11 1015.27 1015.27 1015.23 1015.27 1015.27 1015.03 1015.15 1015.11 1015.03 1014.91 1015.07 1015.43 1015.67 1015.71 1015.71 1015.55 1015.51 1015.51 1015.59 1015.39 1015.39 1015.51 1015.67 1015.87 1016.07 1016.31 1016.51 1016.63 1016.91 1017.31 1017.71 1018.07 1018.35 1018.39 1018.27 1018.23 1018.35 1018.51 1018.71 1018.91 1019.07 1019.31 1019.55 1019.75 1019.87 1019.91 1019.95 1019.99 1020.11 1020.27 1020.39 1020.47 1020.47 1020.55
1014.43 1014.39 1014.31 1014.27 1014.27 1014.23 1014.19 1014.23 1014.23 1014.19 1014.43 1014.51 1014.35 1014.31 1014.35 1014.39 1014.59 1014.75 1014.79 1014.79 1014.95 1015.03 1015.11 1015.07 1015.07 1015.23 1015.11 1015.19 1015.51 1015.27 1015.19 1015.51 1015.39 1015.71 1015.95 1015.99 1015.71 1015.55 1015.51 1015.63 1015.43 1015.27 1015.43 1015.55 1015.51 1015.75 1016.15 1016.51 1016.83 1017.07 1017.39 1017.79 1017.99 1017.67 1017.63 1017.87 1018.07 1018.23 1018.43 1018.59 1018.87 1019.27 1019.63 1019.83 1019.83 1019.75 1019.75 1019.91 1020.03 1020.19 1020.27 1020.15 1020.35 1020.59
1014.35 1014.31 1014.27 1014.15 1014.07 1014.03 1013.99 1013.99 1013.95 1014.03 1014.15 1014.27 1014.27 1014.07 1014.11 1014.39 1014.51 1014.67 1014.67 1014.67 1014.75 1014.91 1015.03 1015.07 1015.15 1015.07 1015.11 1015.07 1015.11 1015.35 1015.59 1015.87 1015.59 1015.35 1015.59 1015.99 1015.99 1015.87 1015.59 1015.47 1015.55 1015.43 1015.51 1015.83 1015.95 1016.03 1016.27 1016.51 1016.59 1016.71 1016.95 1017.27 1017.31 1017.51 1017.83 1018.07 1018.19 1018.15 1018.27 1018.75 1019.19 1019.47 1019.75 1019.83 1019.59 1019.63 1019.83 1019.87 1019.99 1020.11 1020.07 1020.27 1020.31 1020.43
1014.35 1014.19 1014.11 1014.23 1014.27 1014.07 1013.83 1013.95 1013.95 1013.91 1013.87 1013.95 1014.11 1014.07 1013.99 1014.15 1014.31 1014.47 1014.55 1014.59 1014.67 1014.75 1014.91 1014.99 1014.95 1015.03 1015.03 1014.95 1015.19 1015.63 1015.75 1015.87 1015.87 1015.67 1015.43 1015.71 1015.63 1015.67 1015.75 1015.67 1015.47 1015.51 1015.67 1015.75 1015.75 1015.91 1016.07 1016.35 1016.55 1016.79 1017.07 1017.35 1017.55 1017.67 1017.87 1018.07 1018.19 1018.35 1018.67 1018.87 1019.03 1018.99 1018.75 1018.63 1019.11 1019.63 1019.95 1020.11 1020.15 1020.07 1019.95 1019.99 1020.07 1020.15
1013.99 1014.07 1013.95 1014.11 1013.95 1013.95 1013.95 1014.07 1014.15 1014.11 1014.07 1014.07 1014.11 1014.19 1014.11 1014.07 1014.19 1014.27 1014.39 1014.47 1014.47 1014.55 1014.75 1014.83 1014.87 1014.95 1014.83 1014.79 1014.95 1015.35 1015.27 1015.31 1015.43 1015.47 1015.59 1015.83 1015.67 1015.63 1015.91 1015.87 1015.75 1015.55 1015.59 1015.83 1016.03 1015.99 1015.87 1016.23 1016.59 1016.63 1016.91 1017.15 1017.35 1017.55 1017.87 1017.87 1018.03 1018.39 1018.63 1018.71 1018.59 1018.47 1018.75 1019.03 1019.23 1019.55 1019.79 1019.87 1019.79 1019.79 1019.83 1019.83 1019.87 1019.95
1014.11 1014.07 1014.15 1014.11 1014.23 1014.23 1014.23 1014.27 1014.35 1014.35 1014.31 1014.39 1014.47 1014.47 1014.47 1014.51 1014.39 1014.39 1014.43 1014.39 1014.39 1014.59 1014.75 1014.71 1014.71 1014.79 1014.75 1014.67 1014.91 1014.91 1014.83 1014.83 1015.15 1015.19 1015.47 1015.55 1015.51 1015.71 1015.95 1016.23 1016.03 1015.59 1015.59 1015.79 1016.11 1016.35 1016.11 1016.19 1016.83 1017.31 1017.59 1017.59 1017.63 1017.83 1018.19 1018.27 1018.35 1018.51 1018.59 1018.55 1018.51 1018.67 1018.91 1019.11 1019.35 1019.51 1019.59 1019.63 1019.63 1019.67 1019.75 1019.79 1019.83 1019.83
1014.15 1014.07 1014.07 1014.03 1014.03 1014.15 1014.11 1014.07 1014.31 1014.51 1014.63 1014.59 1014.63 1014.67 1014.75 1014.79 1014.87 1014.91 1014.83 1014.75 1014.59 1014.67 1014.71 1014.75 1014.71 1014.79 1014.79 1014.63 1014.55 1014.63 1014.63 1014.83 1014.83 1014.91 1015.11 1015.27 1015.27 1015.43 1015.47 1015.63 1015.83 1015.79 1015.59 1015.63 1016.15 1016.51 1016.31 1016.43 1017.11 1017.63 1018.03 1018.19 1018.19 1018.39 1018.55 1018.55 1018.67 1018.83 1018.91 1018.87 1018.79 1018.83 1019.07 1019.31 1019.51 1019.59 1019.63 1019.71 1019.75 1019.83 1019.87 1019.87 1019.87 1019.87
1014.27 1014.23 1014.07 1014.11 1014.27 1014.03 1014.15 1014.11 1014.07 1014.35 1014.67 1014.71 1014.75 1014.83 1014.83 1014.95 1015.07 1015.15 1015.11 1015.07 1014.87 1014.67 1014.63 1014.67 1014.99 1015.11 1014.95 1014.99 1015.11 1014.95 1014.91 1014.87 1014.99 1014.91 1015.15 1015.19 1015.23 1015.27 1015.39 1015.55 1015.75 1015.87 1015.79 1015.67 1016.15 1016.63 1016.55 1016.67 1017.35 1017.87 1018.35 1018.43 1018.51 1018.67 1018.75 1018.71 1018.71 1018.87 1019.07 1019.23 1019.23 1019.19 1019.23 1019.39 1019.55 1019.71 1019.83 1019.91 1019.95 1019.95 1019.95 1019.91 1019.87 1019.83
1014.47 1014.47 1014.39 1014.27 1014.27 1014.19 1014.51 1014.75 1014.55 1014.19 1014.35 1014.51 1014.67 1014.71 1014.83 1015.23 1015.47 1015.47 1015.39 1015.19 1014.83 1014.63 1014.59 1014.75 1015.15 1015.43 1015.27 1015.31 1015.39 1015.23 1014.87 1014.67 1014.75 1014.83 1014.79 1014.95 1015.07 1015.47 1015.95 1016.19 1016.35 1016.43 1016.03 1015.59 1015.87 1016.51 1016.83 1017.15 1017.51 1018.31 1018.79 1018.71 1018.83 1019.03 1019.35 1019.27 1019.11 1019.11 1019.19 1019.23 1019.23 1019.27 1019.35 1019.43 1019.55 1019.63 1019.71 1019.71 1019.71 1019.67 1019.59 1019.51 1019.43 1019.35
1014.59 1014.67 1014.67 1014.51 1014.39 1014.39 1014.95 1015.31 1015.15 1014.83 1014.47 1014.43 1014.63 1014.95 1015.35 1015.67 1015.99 1016.15 1016.03 1015.79 1015.27 1014.99 1015.07 1015.27 1015.51 1015.67 1015.63 1015.63 1015.55 1015.31 1014.83 1014.67 1014.59 1014.51 1014.39 1014.35 1014.83 1015.39 1015.75 1015.95 1016.11 1016.23 1016.43 1015.87 1015.43 1016.79 1017.27 1017.35 1017.83 1018.67 1018.95 1019.03 1019.15 1019.31 1019.39 1019.39 1019.47 1019.63 1019.35 1019.19 1019.23 1019.31 1019.47 1019.55 1019.59 1019.63 1019.67 1019.67 1019.63 1019.63 1019.55 1019.43 1019.31 1019.19
1014.71 1014.87 1014.87 1014.75 1014.67 1014.63 1015.15 1015.35 1015.35 1015.23 1014.91 1014.43 1014.75 1015.19 1015.63 1015.95 1016.23 1016.51 1016.67 1016.35 1015.75 1015.55 1015.55 1015.67 1015.87 1016.03 1015.99 1015.87 1015.79 1015.59 1015.15 1014.67 1014.55 1014.43 1014.43 1014.63 1014.95 1015.31 1015.79 1016.35 1016.67 1016.83 1016.87 1016.63 1015.91 1016.51 1017.23 1017.55 1017.83 1018.87 1019.07 1019.15 1019.43 1019.43 1019.39 1019.55 1019.67 1019.67 1019.39 1019.27 1019.35 1019.47 1019.55 1019.59 1019.59 1019.59 1019.63 1019.67 1019.67 1019.63 1019.55 1019.43 1019.27 1019.07
1015.11 1015.19 1015.11 1014.99 1015.07 1014.91 1015.15 1015.47 1015.27 1015.03 1014.83 1014.39 1014.79 1015.15 1015.59 1015.99 1016.27 1016.63 1016.63 1016.59 1016.35 1016.19 1016.15 1016.19 1016.23 1016.23 1015.99 1015.71 1015.55 1015.39 1015.15 1014.83 1014.59 1014.67 1014.87 1015.23 1015.23 1015.55 1016.15 1016.71 1016.87 1017.31 1017.39 1017.27 1017.31 1016.75 1017.31 1017.79 1018.07 1018.79 1018.99 1019.11 1019.43 1019.63 1019.75 1019.75 1019.71 1019.59 1019.51 1019.47 1019.47 1019.51 1019.55 1019.55 1019.51 1019.55 1019.63 1019.71 1019.71 1019.63 1019.55 1019.39 1019.19 1018.95
1015.23 1015.55 1015.47 1015.35 1015.51 1015.47 1015.47 1015.39 1015.15 1014.95 1014.55 1014.43 1014.87 1015.23 1015.63 1016.15 1016.39 1016.51 1016.43 1016.43 1016.51 1016.43 1016.31 1016.31 1016.27 1016.15 1016.03 1015.87 1015.75 1015.71 1015.55 1015.27 1014.99 1014.91 1015.39 1015.43 1015.31 1015.67 1015.91 1016.59 1017.15 1017.39 1017.39 1017.63 1017.67 1016.95 1017.55 1017.75 1017.95 1018.39 1018.87 1018.95 1019.23 1019.47 1019.59 1019.63 1019.67 1019.67 1019.55 1019.51 1019.51 1019.55 1019.55 1019.51 1019.55 1019.63 1019.71 1019.75 1019.71 1019.59 1019.51 1019.43 1019.23 1018.99
1015.03 1015.43 1015.67 1015.59 1015.75 1015.87 1015.75 1015.39 1015.11 1014.87 1014.51 1014.47 1014.75 1015.11 1015.51 1015.91 1016.19 1016.31 1016.23 1016.27 1016.31 1016.23 1016.19 1016.31 1016.35 1016.35 1016.23 1016.07 1016.03 1016.11 1015.99 1015.75 1015.63 1015.63 1015.67 1015.43 1015.43 1015.87 1016.19 1016.55 1016.63 1016.71 1017.43 1017.63 1017.63 1017.15 1017.91 1017.71 1017.99 1018.03 1018.35 1019.07 1019.35 1019.31 1019.51 1019.55 1019.59 1019.55 1019.51 1019.47 1019.47 1019.47 1019.43 1019.47 1019.51 1019.63 1019.71 1019.71 1019.71 1019.67 1019.59 1019.59 1019.43 1019.27
1014.87 1015.03 1015.27 1015.55 1015.75 1015.79 1015.71 1015.43 1015.15 1014.75 1014.55 1014.47 1014.71 1014.91 1015.27 1015.59 1016.07 1016.03 1016.07 1016.19 1016.27 1016.31 1016.47 1016.59 1016.63 1016.67 1016.59 1016.39 1016.35 1016.35 1016.27 1016.19 1016.19 1016.15 1016.03 1015.87 1015.75 1016.07 1016.39 1016.71 1016.71 1017.31 1018.07 1017.95 1017.91 1017.63 1018.07 1018.03 1018.15 1018.07 1017.87 1018.51 1019.43 1019.71 1019.71 1019.79 1019.67 1019.55 1019.47 1019.47 1019.51 1019.51 1019.51 1019.51 1019.51 1019.55 1019.63 1019.67 1019.63 1019.63 1019.63 1019.67 1019.63 1019.47
1015.03 1015.27 1015.55 1015.79 1016.07 1016.07 1015.95 1015.59 1015.23 1014.75 1014.59 1014.59 1014.71 1014.91 1015.15 1015.43 1015.71 1015.87 1016.11 1016.23 1016.23 1016.35 1016.47 1016.59 1016.71 1016.79 1016.75 1016.71 1016.67 1016.71 1016.67 1016.63 1016.59 1016.55 1016.51 1016.43 1016.35 1016.47 1016.91 1017.35 1017.79 1018.27 1018.43 1018.15 1018.07 1017.91 1018.11 1018.27 1018.23 1018.19 1018.27 1018.39 1019.27 1019.79 1020.11 1019.99 1019.87 1019.75 1019.67 1019.59 1019.59 1019.59 1019.55 1019.55 1019.55 1019.51 1019.51 1019.59 1019.59 1019.59 1019.63 1019.67 1019.67 1019.55
1015.35 1015.67 1016.03 1016.23 1016.31 1016.23 1016.07 1015.75 1015.31 1014.99 1014.91 1014.79 1014.87 1015.11 1015.27 1015.55 1015.71 1015.87 1016.03 1016.15 1016.23 1016.31 1016.35 1016.47 1016.67 1016.83 1016.99 1017.07 1017.07 1017.07 1017.07 1016.99 1016.95 1016.95 1016.95 1016.95 1016.91 1016.91 1016.95 1017.11 1017.59 1018.07 1018.47 1018.15 1017.95 1017.91 1018.11 1018.43 1018.51 1018.51 1018.63 1018.83 1019.43 1019.67 1020.23 1020.31 1020.11 1019.79 1019.63 1019.55 1019.59 1019.63 1019.55 1019.59 1019.59 1019.59 1019.63 1019.59 1019.55 1019.51 1019.43 1019.43 1019.47 1019.43
1015.71 1015.83 1016.11 1016.31 1016.39 1016.31 1016.11 1015.79 1015.59 1015.31 1015.27 1015.23 1015.35 1015.43 1015.55 1015.55 1015.59 1015.67 1015.75 1015.87 1016.11 1016.35 1016.59 1016.79 1016.95 1017.07 1017.19 1017.27 1017.39 1017.39 1017.35 1017.31 1017.23 1017.23 1017.27 1017.31 1017.27 1017.35 1017.43 1017.51 1017.67 1017.91 1018.15 1018.11 1017.99 1018.03 1018.19 1018.63 1018.63 1018.55 1018.71 1018.83 1019.19 1019.51 1019.63 1019.95 1019.87 1019.59 1019.59 1019.55 1019.63 1019.67 1019.63 1019.59 1019.63 1019.59 1019.59 1019.59 1019.59 1019.51 1019.35 1019.27 1019.31 1019.31
1015.83 1016.07 1016.31 1016.47 1016.51 1016.43 1016.23 1015.91 1015.75 1015.59 1015.59 1015.79 1016.03 1015.99 1015.91 1015.95 1015.95 1015.79 1015.79 1016.03 1016.27 1016.47 1016.71 1016.95 1017.15 1017.27 1017.35 1017.43 1017.55 1017.63 1017.55 1017.51 1017.47 1017.47 1017.51 1017.55 1017.63 1017.71 1017.79 1017.83 1017.87 1017.95 1018.07 1018.15 1018.19 1018.15 1018.23 1018.47 1018.59 1018.55 1018.55 1018.55 1018.75 1019.31 1019.79 1019.63 1019.71 1019.71 1019.75 1019.59 1019.63 1019.71 1019.67 1019.67 1019.63 1019.67 1019.71 1019.75 1019.75 1019.67 1019.55 1019.35 1019.23 1019.23
1016.35 1016.43 1016.43 1016.43 1016.51 1016.43 1016.27 1016.07 1015.87 1015.79 1015.83 1015.87 1015.91 1015.95 1015.87 1015.87 1015.83 1015.79 1015.83 1015.99 1016.11 1016.47 1016.91 1017.19 1017.39 1017.47 1017.55 1017.55 1017.63 1017.63 1017.59 1017.59 1017.59 1017.63 1017.79 1017.79 1017.87 1017.95 1017.99 1018.07 1018.07 1018.11 1018.19 1018.27 1018.35 1018.39 1018.39 1018.43 1018.51 1018.47 1018.51 1018.55 1018.67 1018.91 1019.19 1019.59 1019.63 1019.75 1019.75 1019.75 1019.91 1019.79 1019.75 1019.75 1019.75 1019.87 1019.99 1019.95 1019.95 1019.83 1019.67 1019.51 1019.23 1019.07
1016.59 1016.55 1016.55 1016.59 1016.51 1016.35 1016.15 1015.99 1015.79 1015.75 1015.67 1015.63 1015.67 1015.67 1015.79 1015.83 1015.51 1015.51 1015.75 1015.99 1016.23 1016.63 1016.95 1017.19 1017.35 1017.43 1017.43 1017.47 1017.43 1017.47 1017.51 1017.59 1017.67 1017.71 1017.87 1017.99 1018.11 1018.07 1018.15 1018.23 1018.39 1018.47 1018.51 1018.55 1018.55 1018.59 1018.63 1018.67 1018.71 1018.63 1018.67 1018.87 1018.95 1019.11 1019.11 1019.31 1019.71 1019.79 1019.83 1019.87 1019.87 1019.83 1019.83 1019.83 1019.91 1020.03 1020.11 1020.11 1020.03 1019.87 1019.63 1019.43 1019.23 1019.11
1016.55 1016.59 1016.63 1016.55 1016.51 1016.43 1016.23 1016.07 1015.91 1015.75 1015.67 1015.59 1015.39 1015.43 1015.55 1015.55 1015.63 1015.75 1015.87 1016.07 1016.31 1016.55 1016.83 1017.03 1017.15 1017.19 1017.23 1017.27 1017.31 1017.31 1017.31 1017.35 1017.47 1017.59 1017.75 1017.87 1018.03 1018.03 1018.19 1018.35 1018.71 1018.87 1018.91 1018.91 1018.91 1018.95 1018.99 1018.99 1018.95 1018.99 1019.15 1019.23 1019.27 1019.31 1019.23 1019.23 1019.51 1019.75 1019.91 1019.91 1019.91 1020.19 1019.99 1019.99 1020.07 1020.15 1020.19 1020.15 1020.03 1019.87 1019.67 1019.47 1019.31 1019.15
1016.31 1016.47 1016.51 1016.51 1016.51 1016.35 1016.23 1016.19 1016.07 1015.91 1015.71 1015.59 1015.63 1015.63 1015.67 1015.75 1015.87 1015.95 1016.03 1016.15 1016.31 1016.47 1016.63 1016.83 1016.95 1017.07 1017.15 1017.23 1017.27 1017.31 1017.35 1017.39 1017.39 1017.39 1017.43 1017.55 1017.75 1017.91 1018.07 1018.47 1018.91 1019.07 1019.15 1019.15 1019.19 1019.19 1019.19 1019.23 1019.23 1019.27 1019.35 1019.47 1019.55 1019.51 1019.39 1019.59 1019.87 1019.99 1019.99 1019.99 1019.95 1020.03 1020.11 1020.23 1020.27 1020.31 1020.23 1020.15 1020.07 1019.95 1019.75 1019.59 1019.47 1019.31
1016.47 1016.55 1016.59 1016.63 1016.55 1016.51 1016.35 1016.15 1015.95 1015.87 1015.83 1015.87 1015.87 1015.91 1015.95 1015.99 1015.99 1016.07 1016.23 1016.43 1016.55 1016.59 1016.71 1016.83 1016.91 1017.03 1017.15 1017.27 1017.39 1017.51 1017.59 1017.63 1017.63 1017.59 1017.67 1017.79 1017.91 1018.15 1018.31 1018.59 1018.83 1019.03 1019.23 1019.27 1019.23 1019.23 1019.31 1019.39 1019.39 1019.43 1019.55 1019.71 1019.87 1019.79 1019.75 1020.07 1020.27 1020.31 1020.31 1020.23 1020.19 1020.35 1020.43 1020.47 1020.51 1020.47 1020.31 1020.19 1020.15 1019.99 1019.87 1019.67 1019.55 1019.43
1016.43 1016.55 1016.59 1016.35 1016.31 1016.15 1015.95 1015.87 1015.91 1015.95 1015.99 1015.99 1015.99 1015.99 1015.99 1015.99 1015.99 1016.11 1016.27 1016.39 1016.51 1016.59 1016.71 1016.83 1016.99 1017.15 1017.27 1017.47 1017.63 1017.79 1017.87 1017.83 1017.83 1017.83 1017.83 1017.95 1018.11 1018.31 1018.59 1018.79 1018.95 1019.07 1019.19 1019.35 1019.35 1019.35 1019.35 1019.47 1019.55 1019.63 1019.83 1020.03 1020.15 1020.31 1020.31 1020.31 1020.63 1020.55 1020.47 1020.47 1020.55 1020.67 1020.75 1020.79 1020.71 1020.59 1020.47 1020.39 1020.27 1020.23 1020.15 1019.91 1019.71 1019.67
1016.23 1016.03 1015.91 1015.75 1015.55 1015.51 1015.63 1015.79 1015.87 1015.87 1015.87 1015.83 1015.83 1015.91 1015.95 1015.95 1016.07 1016.19 1016.31 1016.39 1016.43 1016.55 1016.67 1016.79 1016.95 1017.11 1017.27 1017.47 1017.63 1017.75 1017.87 1017.95 1017.99 1017.99 1018.07 1018.15 1018.27 1018.43 1018.63 1018.83 1019.03 1019.19 1019.35 1019.51 1019.59 1019.59 1019.59 1019.67 1019.75 1019.99 1020.23 1020.35 1020.43 1020.63 1020.71 1020.75 1020.59 1020.79 1020.71 1020.75 1020.79 1020.91 1021.03 1020.95 1020.87 1020.75 1020.59 1020.51 1020.47 1020.51 1020.39 1020.19 1020.03 1019.87
1016.35 1016.19 1015.35 1014.91 1014.95 1015.03 1015.27 1015.47 1015.51 1015.55 1015.59 1015.71 1015.83 1015.95 1016.07 1016.15 1016.19 1016.27 1016.39 1016.39 1016.43 1016.55 1016.67 1016.83 1016.95 1017.07 1017.23 1017.35 1017.47 1017.59 1017.71 1017.83 1017.99 1018.15 1018.31 1018.39 1018.55 1018.67 1018.75 1018.91 1019.11 1019.31 1019.47 1019.63 1019.71 1019.87 1020.03 1020.15 1020.23 1020.27 1020.27 1020.43 1020.67 1021.07 1020.99 1021.03 1020.99 1020.87 1021.07 1021.19 1021.07 1021.15 1021.19 1021.11 1020.99 1020.87 1020.79 1020.79 1020.71 1020.67 1020.67 1020.63 1020.43 1020.23
1015.87 1015.55 1014.83 1014.59 1014.75 1014.95 1015.15 1015.23 1015.31 1015.43 1015.55 1015.71 1015.83 1015.91 1016.07 1016.23 1016.31 1016.35 1016.39 1016.43 1016.55 1016.71 1016.87 1016.99 1017.19 1017.27 1017.39 1017.47 1017.51 1017.59 1017.71 1017.83 1017.99 1018.11 1018.27 1018.43 1018.63 1018.75 1018.91 1019.03 1019.19 1019.39 1019.59 1019.75 1019.95 1020.31 1020.39 1020.59 1020.67 1020.71 1020.71 1020.59 1020.75 1021.03 1021.31 1021.11 1021.03 1021.07 1021.11 1021.31 1021.31 1021.23 1021.27 1021.23 1021.19 1021.19 1021.07 1021.03 1020.95 1020.87 1020.87 1020.83 1020.67 1020.43
1015.87 1014.95 1014.39 1014.63 1014.75 1014.83 1014.95 1015.07 1015.23 1015.35 1015.47 1015.59 1015.79 1015.99 1016.15 1016.35 1016.43 1016.47 1016.51 1016.63 1016.79 1016.91 1017.07 1017.23 1017.35 1017.43 1017.47 1017.51 1017.63 1017.75 1017.91 1018.07 1018.19 1018.35 1018.43 1018.51 1018.67 1018.83 1018.99 1019.15 1019.23 1019.39 1019.63 1019.91 1020.23 1020.51 1020.79 1021.03 1021.15 1021.23 1021.23 1021.43 1021.43 1021.51 1021.63 1021.39 1021.35 1021.23 1021.15 1021.19 1021.39 1021.35 1021.31 1021.31 1021.35 1021.35 1021.31 1021.23 1021.19 1021.07 1021.03 1020.95 1020.83 1020.59
1015.47 1014.83 1014.43 1014.59 1014.59 1014.71 1014.91 1015.03 1015.19 1015.31 1015.47 1015.67 1015.91 1016.15 1016.35 1016.51 1016.55 1016.59 1016.71 1016.83 1016.91 1016.99 1017.11 1017.19 1017.31 1017.39 1017.51 1017.67 1017.79 1018.03 1018.39 1018.67 1018.87 1019.03 1019.15 1019.23 1019.15 1019.15 1019.23 1019.35 1019.47 1019.55 1019.75 1020.15 1020.47 1020.79 1021.07 1021.31 1021.47 1021.55 1021.59 1021.71 1021.87 1021.87 1021.79 1021.83 1021.59 1021.19 1021.27 1021.27 1021.27 1021.35 1021.35 1021.35 1021.39 1021.43 1021.47 1021.47 1021.31 1021.27 1021.15 1020.95 1020.79 1020.55
1014.51 1014.27 1014.35 1014.43 1014.59 1014.71 1014.87 1014.99 1015.15 1015.35 1015.55 1015.75 1015.95 1016.19 1016.35 1016.47 1016.47 1016.55 1016.67 1016.75 1016.87 1016.99 1017.15 1017.31 1017.39 1017.51 1017.63 1017.83 1018.03 1018.31 1018.63 1018.95 1019.27 1019.51 1019.67 1019.71 1019.67 1019.75 1019.83 1019.79 1019.71 1019.83 1019.99 1020.35 1020.79 1021.19 1021.39 1021.55 1021.63 1021.63 1021.63 1021.55 1021.55 1021.51 1021.43 1021.47 1021.43 1021.31 1021.27 1021.23 1021.35 1021.31 1021.31 1021.35 1021.43 1021.51 1021.51 1021.43 1021.43 1021.35 1021.27 1021.07 1020.99 1020.67
1014.23 1014.35 1014.35 1014.35 1014.55 1014.67 1014.83 1014.99 1015.15 1015.35 1015.55 1015.75 1015.91 1016.07 1016.11 1016.19 1016.31 1016.47 1016.59 1016.79 1016.99 1017.23 1017.35 1017.43 1017.51 1017.63 1017.79 1017.95 1018.15 1018.43 1018.83 1019.15 1019.43 1019.71 1019.83 1019.95 1019.95 1019.99 1020.03 1020.03 1020.03 1020.11 1020.27 1020.67 1021.03 1021.39 1021.67 1021.67 1021.59 1021.47 1021.43 1021.47 1021.43 1021.35 1021.31 1021.39 1021.47 1021.35 1021.47 1021.43 1021.31 1021.31 1021.43 1021.43 1021.43 1021.47 1021.51 1021.39 1021.39 1021.39 1021.31 1021.23 1021.03 1020.75
1014.11 1014.27 1014.31 1014.35 1014.51 1014.63 1014.79 1014.99 1015.15 1015.35 1015.51 1015.67 1015.79 1015.91 1016.11 1016.31 1016.51 1016.59 1016.75 1016.91 1017.11 1017.27 1017.35 1017.47 1017.63 1017.79 1018.03 1018.19 1018.43 1018.63 1018.87 1019.15 1019.51 1019.83 1019.95 1020.07 1020.11 1020.15 1020.19 1020.27 1020.43 1020.51 1020.59 1020.95 1021.23 1021.51 1021.63 1021.63 1021.59 1021.47 1021.39 1021.39 1021.43 1021.67 1021.87 1021.75 1021.83 1021.79 1021.67 1021.51 1021.39 1021.39 1021.39 1021.39 1021.43 1021.39 1021.31 1021.27 1021.31 1021.47 1021.31 1021.07 1020.91 1020.91
1013.99 1014.11 1014.23 1014.31 1014.35 1014.55 1014.71 1014.91 1015.07 1015.27 1015.47 1015.59 1015.71 1015.99 1016.35 1016.47 1016.55 1016.67 1016.87 1016.99 1017.11 1017.23 1017.39 1017.59 1017.83 1018.07 1018.27 1018.51 1018.71 1018.87 1019.07 1019.23 1019.35 1019.59 1019.83 1019.99 1020.11 1020.27 1020.51 1020.71 1020.75 1020.83 1020.87 1020.99 1021.23 1021.43 1021.63 1021.67 1021.67 1021.59 1021.59 1021.63 1021.71 1021.79 1021.95 1021.91 1021.83 1021.79 1021.59 1021.51 1021.43 1021.39 1021.35 1021.31 1021.15 1021.03 1020.95 1020.91 1021.03 1021.07 1021.11 1021.11 1021.27 1021.39
1013.83 1013.95 1014.03 1014.11 1014.31 1014.47 1014.63 1014.79 1014.99 1015.15 1015.39 1015.51 1015.63 1015.87 1016.19 1016.43 1016.55 1016.71 1016.83 1016.95 1017.11 1017.27 1017.47 1017.71 1017.95 1018.19 1018.47 1018.71 1018.87 1019.03 1019.11 1019.27 1019.47 1019.67 1019.91 1020.07 1020.19 1020.31 1020.55 1020.75 1020.79 1020.95 1020.99 1021.03 1021.27 1021.51 1021.67 1021.71 1021.71 1021.63 1021.75 1021.83 1021.79 1021.83 1021.87 1021.83 1021.79 1021.63 1021.51 1021.43 1021.39 1021.39 1021.31 1021.19 1021.03 1020.95 1020.87 1020.75 1020.63 1020.63 1020.67 1020.75 1020.83 1020.67
1013.67 1013.79 1013.83 1013.99 1014.15 1014.31 1014.47 1014.63 1014.87 1015.07 1015.27 1015.43 1015.55 1015.87 1016.15 1016.35 1016.51 1016.63 1016.71 1016.91 1017.11 1017.35 1017.59 1017.79 1018.03 1018.27 1018.47 1018.71 1018.87 1019.11 1019.27 1019.35 1019.51 1019.75 1019.91 1020.07 1020.15 1020.31 1020.43 1020.59 1020.83 1020.99 1021.03 1021.03 1021.27 1021.63 1021.71 1021.75 1021.71 1021.71 1021.83 1021.87 1021.79 1021.79 1021.67 1021.63 1021.55 1021.47 1021.43 1021.39 1021.35 1021.27 1021.19 1021.11 1021.07 1021.03 1020.95 1020.75 1020.47 1020.43 1020.47 1020.51 1020.51 1020.47
Wind_Speed
3 2 5 6 6 5 6 6 6 7 7 6 6 7 8 6 5 4 5 5 5 4 6 4 1 1 2 4 2 3 4 5 7 8 5 6 8 14 17 18 17 18 18 18 20 20 20 18 17 17 16 16 17 15 15 14 13 15 17 17 17 16 15 14 14 13 14 16 18 17 16 15 15 15
4 5 3 4 5 4 5 7 7 8 7 6 6 6 6 5 6 5 5 2 2 2 1 3 3 2 1 1 3 5 6 6 7 6 8 6 7 15 18 17 17 18 17 16 16 17 19 21 21 19 17 17 18 18 17 16 13 13 16 16 15 15 14 14 15 15 15 15 17 16 15 15 14 14
3 5 6 3 3 5 6 5 6 6 6 7 7 6 5 6 6 5 3 2 2 2 4 3 2 2 2 4 3 4 5 6 8 7 7 4 9 10 15 18 18 17 17 16 15 15 16 17 19 20 18 17 18 18 18 17 14 14 13 14 14 14 14 14 14 13 14 16 16 15 15 14 14 14
4 5 5 4 3 2 3 5 6 5 6 5 5 5 5 5 6 5 5 5 6 2 3 3 3 5 3 3 3 4 3 7 14 8 9 10 7 4 4 16 19 17 17 17 17 16 16 16 16 16 15 15 15 16 16 16 14 13 12 12 13 14 14 14 14 13 15 16 16 16 15 15 14 14
5 6 6 4 2 2 2 3 4 5 3 2 6 7 6 6 6 6 7 6 6 2 4 3 2 3 5 5 6 5 4 5 7 10 8 4 4 7 4 2 9 15 18 17 17 17 16 15 14 14 14 14 14 14 14 14 13 12 12 13 13 13 14 14 15 15 15 15 15 15 15 15 15 14
3 3 5 9 3 1 3 5 4 5 4 8 9 8 7 7 6 5 6 6 4 4 2 3 2 2 2 3 4 4 4 3 5 6 4 3 4 6 6 8 10 12 14 17 18 18 17 16 14 13 13 14 13 13 13 13 13 13 13 13 13 13 13 13 14 14 15 15 14 15 15 14 14 14
4 3 2 5 3 2 3 4 5 1 4 4 7 6 6 6 6 6 6 5 6 5 3 2 2 1 1 2 2 1 1 2 4 6 6 6 5 5 7 8 8 18 22 18 17 17 17 16 15 14 13 12 11 12 12 12 12 13 13 13 13 13 13 13 13 13 14 14 14 13 13 13 13 12
5 7 5 3 4 3 4 4 3 5 5 5 4 6 5 4 5 4 5 6 5 4 2 1 2 2 1 2 1 3 1 1 2 3 5 6 6 4 5 4 1 3 14 17 16 12 10 11 13 14 14 13 11 10 10 10 10 9 9 10 10 10 11 12 12 12 12 12 12 12 12 11 11 11
1 4 4 4 3 3 5 6 4 2 3 3 2 4 3 6 4 1 2 4 4 4 5 4 3 2 2 2 2 3 4 2 2 3 2 5 5 3 1 3 5 6 10 9 8 8 10 10 10 9 10 10 9 8 6 6 6 7 8 9 9 8 8 7 7 8 9 10 10 10 9 9 8 8
0 4 5 6 4 3 1 3 4 3 2 0 5 5 2 2 2 3 4 5 5 4 4 3 3 2 4 3 3 2 2 3 3 4 3 3 4 5 3 3 4 3 6 7 8 9 10 12 13 11 8 7 5 6 9 11 11 10 9 9 9 9 8 7 7 8 9 10 9 8 8 8 8 7
4 2 5 2 3 2 3 2 2 2 2 3 3 4 4 3 3 5 5 3 4 5 6 5 4 3 1 0 2 3 4 5 2 4 5 2 1 2 5 6 4 5 5 4 6 6 7 7 7 9 10 9 11 15 16 15 14 13 13 13 11 8 6 6 7 9 10 8 6 4 5 8 5 3
6 3 3 3 2 2 1 1 1 0 2 2 3 2 1 2 2 2 3 3 4 3 3 3 3 2 3 2 2 2 5 5 2 1 0 4 4 3 2 2 4 1 2 4 4 3 4 6 7 9 10 12 14 12 7 6 7 10 10 2 3 5 5 2 11 9 6 5 3 3 7 3 3 3
4 5 2 2 5 4 2 4 5 5 4 1 1 1 1 2 2 2 1 1 2 2 1 2 2 2 3 3 2 4 6 3 3 1 2 1 2 5 5 3 3 2 3 2 3 4 5 5 4 4 4 4 7 6 5 4 7 6 2 5 7 7 12 11 5 1 1 1 2 5 3 2 3 5
4 3 1 3 4 3 1 4 5 6 8 8 5 2 4 2 1 0 1 1 1 1 0 1 1 3 4 3 2 5 4 4 2 1 1 3 3 4 4 2 1 1 2 4 3 3 4 5 4 4 4 4 5 3 2 3 2 5 8 9 9 7 4 4 2 2 2 1 2 2 2 1 1 2
5 2 3 1 3 2 1 1 5 5 7 8 8 10 10 8 5 2 1 2 3 2 1 2 2 2 4 1 1 3 3 5 6 5 3 4 5 5 5 4 0 2 1 3 4 5 2 4 6 7 7 6 6 6 5 8 12 11 11 10 8 9 9 7 6 5 5 4 4 3 3 1 1 3
4 5 2 1 1 0 3 5 4 4 5 7 9 11 10 11 12 8 5 3 3 3 2 3 3 4 3 0 2 1 2 5 5 4 4 3 5 6 4 3 4 1 4 3 5 6 3 7 8 8 6 5 6 6 6 11 12 12 12 11 10 10 9 9 9 8 7 6 5 4 3 1 1 3
5 5 4 2 4 1 5 4 3 6 4 5 9 12 12 12 12 11 11 6 2 2 3 2 5 5 3 4 4 5 3 3 1 1 4 3 1 2 4 2 2 3 6 2 5 3 4 7 8 8 7 5 5 7 8 11 12 12 12 11 11 11 10 9 9 8 7 5 4 3 2 2 4 5
5 5 5 5 3 3 7 6 7 2 5 5 5 5 6 7 9 10 10 10 9 4 4 5 4 3 4 4 3 3 4 2 2 1 6 5 6 7 6 5 6 5 6 2 5 5 6 6 8 9 5 5 5 6 7 8 10 11 11 11 11 11 10 8 7 6 5 5 4 4 5 6 7 7
2 5 6 5 6 5 7 6 6 6 4 3 3 7 7 8 7 7 7 6 4 5 5 5 5 3 4 3 3 4 3 2 2 1 1 5 9 10 7 5 4 6 8 6 3 4 6 5 9 6 5 5 6 4 5 9 9 8 10 11 11 10 9 8 8 7 7 6 6 7 7 9 10 10
4 5 5 4 5 4 6 7 8 5 4 1 7 8 8 8 7 7 6 7 9 7 6 5 5 3 3 3 5 5 3 2 2 3 6 7 7 7 6 6 4 6 5 8 3 5 4 5 9 6 4 4 5 4 4 5 7 8 10 11 10 9 8 7 6 5 5 4 5 6 7 9 10 10
6 5 4 4 4 4 5 8 9 9 7 6 7 8 8 7 7 6 5 7 10 11 11 10 9 7 8 12 13 14 13 8 3 3 6 5 3 6 7 5 4 5 4 7 6 2 7 6 7 6 4 4 5 4 3 3 3 7 8 8 8 7 5 4 3 2 2 3 4 6 8 9 11 11
5 7 12 9 5 6 5 9 10 10 6 8 7 8 8 7 7 5 3 3 3 5 7 6 6 7 10 11 14 15 15 15 9 6 6 2 2 5 5 5 3 2 5 6 6 1 5 6 5 7 4 4 4 3 3 3 3 2 4 6 6 4 2 1 2 2 2 4 5 6 8 10 10 6
3 4 6 11 9 6 7 10 9 9 5 6 7 7 7 7 6 5 4 4 4 4 5 5 5 7 7 7 8 9 13 14 11 7 5 3 5 6 6 6 4 4 4 5 7 2 3 3 2 3 4 4 3 3 3 2 0 1 1 4 5 6 6 5 4 5 4 5 6 6 6 8 8 6
1 3 3 8 12 13 12 10 10 6 4 5 5 6 5 6 7 4 4 4 4 5 6 5 5 4 4 6 7 6 7 8 8 8 7 6 5 6 5 5 4 5 1 2 6 3 2 2 2 3 2 5 3 2 4 4 5 5 3 3 5 5 6 5 4 3 5 5 6 6 5 4 4 4
4 4 5 5 9 11 10 9 8 7 5 4 5 4 5 5 7 6 5 6 7 5 5 4 4 5 5 7 7 7 6 6 6 7 7 7 6 6 7 7 7 5 1 3 4 1 3 2 3 3 5 4 4 4 2 2 5 4 3 2 2 2 3 3 3 2 3 4 5 7 6 6 5 0
5 4 4 4 7 9 9 8 7 10 10 7 5 7 11 14 12 7 6 5 4 4 4 4 4 4 5 5 6 6 6 6 6 7 7 7 7 7 5 6 7 6 2 3 3 2 4 4 2 3 2 3 3 5 4 1 2 2 2 1 1 0 1 3 3 3 3 3 5 3 6 6 6 5
4 4 4 4 7 8 7 6 7 8 8 7 7 13 13 12 13 9 3 4 4 5 5 4 5 5 5 5 6 5 5 5 5 6 6 7 7 8 8 7 6 6 4 1 3 4 4 3 2 3 3 3 5 4 3 2 0 1 1 0 1 1 2 3 3 3 2 4 4 7 9 6 4 8
4 4 3 3 5 6 5 6 8 10 9 6 5 3 4 1 1 1 6 4 5 5 4 5 4 5 4 5 5 4 4 4 4 5 5 7 7 8 7 7 6 5 5 4 4 4 4 5 3 0 1 0 4 5 3 2 3 2 0 2 2 2 1 2 3 2 4 5 6 7 6 6 2 3
4 4 4 4 5 6 6 5 3 5 5 4 3 1 4 4 2 2 5 4 4 5 5 5 5 5 4 4 4 3 3 4 4 5 5 5 6 6 6 6 5 5 4 4 4 4 4 3 2 2 4 4 5 4 4 5 3 1 1 3 2 0 1 3 4 5 6 6 6 6 6 6 6 3
5 4 3 4 6 7 6 4 0 2 2 3 6 9 6 4 2 3 5 5 5 5 5 5 6 5 4 3 3 4 4 3 3 3 4 4 3 4 5 6 7 6 7 6 6 5 5 4 5 2 4 6 6 4 4 4 3 3 3 4 5 1 3 4 5 5 6 6 6 6 6 6 5 5
2 2 2 3 3 4 4 3 0 1 2 2 1 2 3 3 5 4 5 5 5 5 5 5 4 4 4 3 3 2 2 3 4 5 5 5 4 4 5 6 6 6 5 5 6 5 4 4 5 6 5 4 5 4 4 3 6 4 3 3 3 2 2 4 4 5 6 5 5 6 5 6 6 6
3 3 0 1 0 1 1 0 1 3 1 2 3 4 4 4 4 5 6 5 4 4 5 5 5 4 4 3 3 3 4 4 4 4 3 3 4 4 5 5 5 5 4 3 3 3 5 4 4 5 6 5 4 4 4 7 6 5 3 3 2 2 5 4 4 4 4 5 5 5 6 5 5 6
2 1 3 1 2 2 3 3 2 2 2 2 3 4 4 4 4 4 4 5 5 5 6 5 4 4 5 5 5 4 4 3 5 3 5 5 7 7 7 6 6 4 5 3 3 3 3 4 4 5 6 6 5 5 5 6 6 5 4 4 4 5 5 5 6 5 4 4 5 5 5 6 6 6
2 4 4 4 4 4 3 3 3 4 3 3 3 3 4 5 3 5 5 4 4 4 5 4 5 5 5 5 6 5 5 5 4 3 4 4 5 5 4 6 5 5 5 5 4 5 4 3 4 4 5 6 6 7 6 6 5 4 5 4 6 5 5 6 5 5 5 4 3 6 6 7 7 5
2 3 6 6 6 5 5 4 4 4 4 4 3 3 3 5 5 4 5 4 4 4 4 5 5 5 5 5 5 5 5 5 5 5 6 6 6 6 6 6 5 5 5 5 5 6 6 7 4 4 4 5 5 5 7 5 4 5 5 6 3 4 5 4 5 6 4 5 7 6 6 4 6 7
6 5 6 5 4 4 5 5 5 4 4 3 5 3 4 4 3 4 3 3 4 4 4 4 4 4 4 4 4 4 4 4 5 5 6 5 7 5 5 6 6 6 6 5 6 6 6 7 6 5 2 2 3 2 2 4 4 3 5 3 3 3 3 3 4 4 6 6 5 4 4 5 6 7
5 7 5 3 4 4 4 3 3 4 5 5 5 4 4 4 3 3 2 2 5 5 5 6 7 6 6 4 4 3 4 5 4 4 4 5 6 6 5 4 5 6 5 5 7 7 6 6 7 6 6 7 6 4 2 0 5 4 5 3 3 3 2 3 4 5 5 5 5 4 4 5 6 6
6 6 4 3 3 3 4 3 4 4 4 4 4 5 4 5 4 3 4 5 5 5 5 6 5 5 4 3 4 6 6 6 6 7 6 6 5 5 6 5 4 4 6 6 6 6 6 6 6 6 6 5 4 4 4 5 2 2 1 3 1 2 3 4 4 4 4 4 5 5 6 7 6 6
6 5 3 3 3 3 3 3 3 3 4 5 5 6 5 4 3 3 4 5 4 4 4 3 3 4 7 6 5 5 7 7 6 6 6 6 5 5 5 5 5 5 5 6 6 6 6 6 5 4 4 4 2 1 1 2 4 5 3 3 1 1 1 1 3 3 3 4 5 5 5 4 6 10
6 2 2 2 3 3 4 4 4 5 4 5 5 5 5 5 4 4 4 3 4 5 6 6 4 5 6 6 6 6 7 7 6 6 6 5 6 6 5 4 5 4 5 6 6 6 6 5 3 2 2 1 1 3 4 5 4 2 2 1 2 1 2 1 2 3 4 3 3 5 6 5 5 5
1 1 1 3 3 3 4 4 5 4 5 5 5 5 5 5 5 4 4 6 5 6 4 3 4 4 4 4 5 6 6 6 6 5 4 4 4 4 4 4 4 4 4 6 6 6 5 4 4 7 4 3 3 2 3 3 3 3 4 3 6 6 1 1 1 2 3 4 4 4 5 5 5 4
4 3 3 3 3 3 4 4 5 4 5 5 4 4 4 5 6 9 8 6 5 4 4 4 5 5 6 6 6 5 5 5 5 7 5 4 3 2 4 6 5 5 4 4 6 5 4 4 4 5 3 3 4 4 2 2 2 3 3 4 5 4 2 4 5 7 6 5 4 4 3 4 3 4
5 3 3 4 4 4 4 5 4 5 5 4 5 6 6 6 5 6 4 4 4 3 5 6 6 6 5 5 5 5 5 4 4 5 4 2 3 4 5 4 3 3 3 3 5 4 5 4 4 4 4 4 2 3 3 3 3 4 3 3 3 5 5 7 10 13 13 13 10 8 6 4 2 4
4 5 4 3 4 5 4 5 5 5 5 4 4 6 6 5 5 4 4 4 4 5 5 5 5 5 5 5 5 3 2 3 4 5 4 2 3 4 5 5 1 3 1 1 4 4 4 3 3 2 3 3 2 2 4 4 4 4 4 4 4 4 6 6 4 5 6 7 9 10 13 12 11 12
4 4 5 5 5 4 5 5 6 5 5 5 5 6 6 5 5 4 5 5 5 6 5 5 5 5 5 6 5 4 4 6 6 4 5 3 1 4 2 4 5 3 1 1 5 3 2 0 2 1 1 2 2 2 5 4 4 4 4 4 5 4 4 3 5 6 6 6 10 10 9 8 10 12
Wind_Direction
276 209 204 227 254 214 196 208 203 225 231 209 195 196 198 191 210 219 233 223 221 211 204 229 229 171 151 217 177 205 234 167 145 187 250 254 195 198 198 197 198 201 202 206 211 212 212 209 209 212 214 214 218 219 218 219 213 210 215 218 223 227 228 229 231 230 228 227 231 234 233 231 231 230
316 283 233 195 223 243 229 220 215 213 215 218 211 198 207 193 208 218 229 253 198 175 189 193 209 122 127 192 196 210 220 187 157 189 189 244 227 193 197 198 200 201 202 204 206 212 214 215 212 213 213 215 217 219 222 223 221 214 216 219 222 224 224 224 227 229 228 228 232 235 235 234 233 232
266 291 282 249 227 209 224 232 213 211 219 225 226 215 199 200 210 229 226 248 256 181 189 247 119 139 178 202 206 216 198 161 174 186 184 197 305 226 199 199 202 201 202 201 204 209 213 215 216 218 216 213 217 220 222 224 221 219 219 217 219 222 225 225 227 226 226 230 232 234 233 234 234 232
264 243 256 241 226 215 212 238 233 212 209 213 213 231 218 213 216 207 216 218 247 213 173 189 190 198 197 206 210 205 189 172 173 196 194 187 167 213 254 206 199 203 204 202 204 205 210 214 216 217 217 214 214 217 219 222 222 218 217 217 217 219 221 224 225 224 227 231 231 232 233 234 234 233
272 279 274 275 247 229 209 221 243 238 222 353 261 219 206 211 215 200 219 224 245 247 221 214 218 214 180 207 181 188 187 168 177 192 202 148 152 120 124 305 255 218 203 205 205 205 207 210 215 215 214 213 211 213 216 218 218 218 217 217 218 219 221 224 228 230 231 232 233 232 233 236 238 238
312 289 292 289 288 30 271 260 233 233 190 218 243 229 206 206 203 190 199 220 229 244 175 241 236 258 269 256 174 176 191 177 158 168 143 123 138 147 166 167 173 212 247 217 205 204 205 209 213 216 217 215 211 211 213 214 215 217 217 218 220 221 222 224 228 232 235 235 235 237 238 239 241 241
281 283 280 281 281 252 275 264 243 189 229 238 227 241 242 235 232 214 208 202 224 231 241 188 176 117 292 298 347 284 188 192 165 141 138 147 162 183 185 185 199 190 197 212 214 205 205 207 209 213 218 220 214 212 214 215 216 218 221 222 222 222 222 223 227 232 236 239 240 242 242 243 243 242
337 319 300 294 276 277 284 288 219 211 222 215 240 242 228 258 239 216 230 225 219 215 233 242 187 176 156 281 136 251 259 191 121 137 135 146 154 182 199 162 75 197 201 201 206 214 224 224 218 213 212 217 219 216 217 222 225 229 233 237 237 234 232 230 230 234 239 244 247 248 250 249 249 250
293 287 312 306 297 268 303 309 280 243 241 247 247 244 230 227 222 50 313 281 237 216 226 237 240 224 212 243 252 213 209 162 143 146 137 139 147 155 179 82 104 123 166 163 169 188 195 207 224 236 237 233 230 229 233 231 226 222 223 226 231 235 238 241 243 246 249 253 257 261 266 271 275 272
64 300 292 283 310 317 251 248 291 289 281 248 219 219 233 277 154 212 209 228 247 247 252 247 274 243 226 225 248 232 253 172 147 129 125 127 139 137 113 76 98 125 139 156 164 178 195 201 199 206 215 220 227 232 227 224 221 220 221 223 226 229 230 230 232 233 235 237 241 247 254 263 263 264
317 218 261 308 323 292 270 290 299 282 234 231 220 228 209 237 208 202 221 207 216 220 228 227 234 269 257 282 327 330 336 288 210 151 157 143 94 100 124 121 124 132 131 161 169 161 180 182 183 191 197 193 196 214 217 216 215 214 215 216 217 221 233 244 246 239 235 237 238 243 256 251 270 331
322 263 281 275 269 299 13 312 213 334 175 247 249 246 172 248 247 242 229 220 207 216 237 227 229 206 242 213 192 309 294 265 262 66 186 152 156 141 107 131 139 89 131 134 134 150 169 164 155 172 185 190 207 222 248 253 243 229 221 195 74 76 72 237 241 242 251 249 237 212 243 268 251 226
297 327 218 244 250 246 132 70 43 74 63 169 179 281 222 204 217 234 229 153 165 172 207 267 224 234 237 223 172 222 232 234 246 295 16 113 150 144 125 109 100 137 153 140 124 133 137 138 157 134 149 186 205 222 215 236 232 231 157 130 110 141 187 209 229 279 315 279 182 205 234 219 208 197
305 276 261 180 276 268 116 124 94 77 72 60 66 31 6 37 16 346 70 159 127 113 163 271 267 261 254 227 199 233 193 121 181 225 260 163 169 124 117 107 67 351 112 126 125 116 135 138 130 128 95 104 150 119 134 264 129 118 104 113 155 174 107 89 117 95 112 119 89 97 123 188 223 225
314 325 313 341 287 277 175 119 95 93 95 95 85 71 62 46 34 2 358 29 53 62 47 355 322 264 263 222 53 303 170 161 192 214 178 205 160 165 157 161 145 42 48 138 124 101 64 114 94 58 48 42 54 62 55 83 92 99 108 117 120 112 114 108 103 105 96 87 71 60 50 31 271 249
323 332 342 17 221 176 261 180 132 100 106 105 96 90 84 70 54 46 46 17 17 29 16 358 23 8 353 84 163 190 199 195 212 173 172 211 177 168 167 148 154 98 355 124 128 90 69 87 86 76 61 55 51 57 81 91 97 103 107 109 103 97 99 101 97 92 86 81 75 72 67 49 256 246
342 338 323 38 340 82 339 333 138 150 133 121 112 109 101 75 56 36 22 9 354 318 342 17 53 24 4 57 37 4 9 11 17 193 198 198 118 90 104 93 74 7 322 104 99 97 114 108 96 83 64 60 66 64 60 78 89 91 93 96 99 97 94 92 92 95 99 101 106 127 159 193 215 220
6 346 0 1 351 48 54 16 359 5 144 140 146 131 71 60 42 28 13 353 341 351 45 67 79 25 22 54 37 334 312 188 158 240 152 146 124 95 91 86 75 19 343 112 122 94 83 89 98 90 76 73 66 57 54 69 83 94 96 97 96 94 95 96 94 89 83 70 48 27 11 356 343 327
359 22 8 353 353 50 60 41 3 352 13 86 74 83 69 58 50 35 10 358 4 51 59 81 83 55 38 26 5 327 341 6 52 5 139 126 110 114 122 85 65 49 11 334 88 105 110 104 92 90 98 85 78 90 83 83 83 80 88 88 85 82 79 76 71 60 48 33 21 8 359 350 338 326
46 39 11 1 5 42 65 17 3 343 310 200 111 96 92 84 71 58 38 30 49 58 74 70 79 63 38 56 41 11 347 8 2 62 71 90 112 110 84 71 26 38 11 5 43 99 102 112 104 108 106 102 94 87 81 77 102 104 90 86 85 83 78 75 72 64 49 23 2 357 348 345 340 330
67 39 24 18 15 3 38 3 347 333 319 123 108 105 97 94 88 81 68 54 72 84 88 95 103 106 78 57 43 31 27 32 14 80 74 61 103 110 104 83 61 39 359 23 14 64 104 116 113 119 124 110 106 99 98 103 77 95 102 102 102 103 104 100 88 57 6 344 340 341 347 349 349 345
86 68 53 46 29 15 5 342 338 329 326 114 110 115 114 110 114 119 130 114 94 112 107 103 92 69 59 57 50 39 32 30 29 71 73 334 79 93 102 111 101 105 44 17 341 55 72 108 119 116 130 127 94 95 71 59 36 19 87 89 81 75 53 349 310 306 308 315 324 334 346 352 357 358
129 95 67 53 41 18 339 338 336 328 333 125 122 124 127 122 120 133 140 121 96 75 70 50 48 39 38 46 53 45 38 36 36 38 48 23 83 97 103 120 137 82 21 358 342 70 29 78 46 128 140 76 63 62 92 80 209 241 86 63 47 29 9 349 311 303 306 301 308 318 334 346 1 360
81 127 80 40 26 6 348 344 332 344 22 124 126 133 129 121 118 129 118 110 103 88 80 77 62 56 42 56 58 49 45 44 36 32 31 29 60 93 87 65 68 99 62 316 3 48 67 30 76 18 97 130 124 82 42 20 6 5 24 50 45 14 5 7 345 296 283 286 285 289 298 320 359 9
69 42 38 37 16 357 340 336 346 37 79 117 131 127 125 120 119 124 118 115 109 108 109 108 86 67 53 51 54 48 49 49 42 41 35 40 42 79 102 101 86 86 63 294 311 337 85 23 52 36 41 59 104 101 22 17 354 358 342 30 61 13 7 346 339 325 291 283 268 267 275 259 275 15
68 62 52 37 356 350 337 343 15 54 50 75 84 101 118 127 135 132 131 146 151 135 125 101 90 80 67 58 52 54 50 48 47 54 53 45 52 49 55 91 112 110 55 307 321 62 106 51 12 66 66 94 104 120 116 3 283 250 263 269 131 206 324 320 319 317 342 348 343 327 310 294 241 236
78 71 70 45 9 351 342 11 32 61 85 79 117 134 143 154 156 156 138 116 92 85 81 82 75 69 64 61 59 58 54 47 52 62 63 62 62 64 64 68 84 104 146 114 33 66 84 99 356 79 97 116 119 130 103 128 250 289 61 274 148 112 354 335 351 355 2 0 331 339 337 339 222 242
65 79 66 51 344 347 4 54 58 59 60 90 96 111 109 85 289 23 122 109 115 114 95 85 82 77 76 81 78 69 72 74 67 67 70 78 77 81 76 68 65 70 85 78 53 48 77 105 102 36 101 51 121 126 120 98 115 62 119 293 118 124 277 283 307 338 17 17 357 345 342 326 290 220
74 93 92 26 324 318 320 326 75 84 90 107 138 140 201 191 216 218 130 136 128 110 98 99 97 88 86 101 111 127 111 100 84 81 82 83 90 93 91 83 73 60 54 68 70 57 50 51 69 76 49 41 83 74 110 152 136 134 52 41 29 245 339 4 20 43 30 16 351 335 320 310 306 293
101 78 55 322 306 295 291 284 61 78 121 165 189 217 207 227 208 107 107 104 101 106 111 111 111 120 131 124 157 164 164 150 136 132 123 117 110 109 91 83 69 57 50 39 42 41 39 38 24 44 87 55 55 62 40 100 118 135 95 61 345 350 42 35 25 40 32 5 337 325 308 314 322 339
118 171 206 274 300 318 333 341 61 282 274 275 207 148 148 109 70 67 74 91 105 111 117 119 121 126 134 154 153 165 143 137 158 165 164 151 161 140 111 99 93 80 69 65 59 46 36 33 47 48 62 62 47 24 337 51 82 75 77 75 44 81 352 36 22 37 18 348 327 316 327 336 334 334
136 135 282 331 283 208 101 42 277 251 277 58 48 52 58 76 89 96 109 96 96 105 114 118 129 142 147 139 131 102 75 61 50 55 72 81 99 112 117 99 100 101 87 74 82 91 72 52 60 67 81 76 60 351 16 69 64 51 39 57 10 17 61 46 25 8 352 339 336 331 319 315 331 330
103 133 169 216 239 251 234 208 172 107 90 79 92 113 112 117 134 127 106 100 96 104 104 110 110 98 89 84 79 79 76 70 72 51 76 81 83 64 65 72 83 88 89 75 74 84 111 92 68 79 68 59 45 46 63 62 38 34 17 3 37 32 31 27 29 353 333 349 324 314 326 328 332 317
191 209 228 206 213 211 189 148 149 149 143 147 142 137 179 178 135 110 119 125 130 121 121 123 111 110 104 93 91 89 87 69 57 43 66 76 95 100 95 98 94 90 91 77 51 29 37 78 104 79 87 73 57 49 58 78 60 18 358 36 48 30 14 27 1 334 330 306 325 358 352 328 313 335
272 261 216 208 204 175 158 165 169 186 182 171 154 129 99 85 93 98 103 126 138 131 124 119 125 127 122 125 123 123 124 114 93 63 50 54 57 75 83 82 80 81 79 64 51 32 34 22 48 105 75 57 52 24 36 50 82 32 18 21 33 49 22 358 342 327 340 355 18 356 321 314 333 339
285 281 248 199 177 153 143 158 169 161 140 121 100 110 114 107 102 104 106 108 98 102 101 102 98 100 107 110 113 113 120 121 116 108 91 83 74 67 71 83 89 78 78 79 68 56 48 29 26 39 94 140 119 97 28 23 66 81 62 0 1 46 13 337 335 342 7 6 345 348 336 333 327 326
273 271 227 135 108 120 132 156 141 127 128 140 144 134 116 111 98 99 110 101 89 84 84 81 78 78 80 91 105 107 95 91 96 105 117 125 128 127 110 101 106 109 97 87 84 66 51 43 26 26 28 36 44 65 114 44 353 344 98 44 344 24 11 4 359 357 342 356 336 340 343 334 315 308
275 266 127 124 152 160 145 143 134 149 140 120 112 103 96 89 90 84 74 78 85 91 90 102 121 135 142 131 94 77 71 60 57 54 56 61 69 69 82 84 69 87 102 91 80 78 77 55 39 23 30 40 34 30 360 329 11 312 217 100 38 343 14 27 357 345 331 339 333 326 355 334 307 305
257 254 139 174 155 133 120 122 139 113 108 102 101 104 112 125 134 135 116 126 148 142 134 126 110 98 91 89 90 87 74 66 56 47 43 37 40 58 50 66 73 56 67 81 76 73 69 61 45 30 29 27 31 10 359 322 291 277 268 167 110 12 333 2 314 337 346 331 321 334 314 289 304 313
236 155 158 148 109 125 134 135 117 112 114 119 117 126 140 161 163 144 138 139 109 85 81 83 85 78 77 81 83 85 87 87 80 64 55 44 39 40 33 13 56 75 78 72 77 69 64 57 50 357 296 281 247 243 233 219 241 295 359 271 218 91 331 10 10 352 315 300 318 330 312 334 330 309
134 137 195 118 150 144 138 134 130 132 128 138 142 162 166 150 135 139 130 99 92 100 112 125 120 111 107 100 104 111 118 113 106 99 93 81 68 52 29 16 58 52 74 85 85 77 63 42 348 319 287 257 280 357 19 19 351 335 353 332 304 274 149 55 258 311 286 297 313 302 307 305 303 318
155 196 164 173 155 156 141 143 137 148 139 141 152 145 95 80 93 98 99 110 125 138 141 117 96 87 83 76 74 73 83 104 126 135 136 126 120 106 58 48 54 41 51 85 89 96 89 40 357 344 2 37 38 47 334 338 322 317 315 289 297 359 180 264 259 244 250 263 287 301 305 322 344 316
154 200 160 185 149 156 151 145 150 139 142 148 152 117 115 121 116 112 129 139 144 128 109 105 102 100 100 91 85 90 96 101 103 101 91 94 121 111 92 74 45 58 35 67 94 86 62 36 0 358 15 27 13 45 326 314 321 304 292 312 309 322 319 296 278 274 270 263 243 229 220 224 280 290
160 202 172 166 154 164 150 153 146 138 145 163 149 126 130 140 138 149 156 148 126 111 107 104 110 112 110 111 113 125 138 127 99 102 103 92 74 87 106 120 130 87 25 77 95 82 71 36 338 18 38 349 337 352 300 308 295 279 280 284 299 308 294 289 300 312 314 296 282 255 246 241 237 244
174 198 177 168 154 167 156 153 146 146 159 156 136 121 128 138 154 176 143 124 117 114 113 115 112 109 114 121 137 136 99 96 110 118 117 127 149 137 178 151 138 112 274 160 109 93 77 22 299 48 40 306 302 271 265 255 256 277 291 298 293 285 285 316 328 309 297 305 286 274 262 259 260 266